Find Local Weather

World > North America > United States > Wisconsin

Cambridge, Wisconsin Regional Weather

Lat: 43.01N, Lon: 89.02W
Wx Zone: WIZ063
Feedback
Expires:201807162100;;581218
ASUS43 KMKX 162021
RWRWI 

WISCONSIN REGIONAL WEATHER ROUNDUP
NATIONAL WEATHER SERVICE MILWAUKEE/SULLIVAN WI
300 PM CDT MON JUL 16 2018

NOTE: "FAIR" INDICATES FEW OR NO CLOUDS BELOW 12,000 FEET WITH NO
SIGNIFICANT WEATHER AND/OR OBSTRUCTIONS TO VISIBILITY.


WIZ051-052-058>065-066-070>072-162100-
SOUTHEAST WISCONSIN
  
CITY           SKY/WX    TMP DP  RH WIND       PRES   REMARKS
MILWAUKEE      FAIR      83  70  64 NE9       29.91F HX  87           
WAUKESHA       SUNNY     82  59  44 NW14      29.95F HX  82           
MILWAUKEE/TIMM SUNNY     86  46  25 NW10G22   29.93F HX  83           
RACINE         FAIR      82  71  69 VRB5      29.93F HX  86           
BURLINGTON     FAIR      84  64  51 NW12      29.94S HX  85           
KENOSHA        FAIR      88  71  57 NW8       29.92F HX  94           
FOND DU LAC    FAIR      83  55  38 W12       29.95F HX  82           
SHEBOYGAN      FAIR      83  55  38 W12G20    29.92F HX  82           
WEST BEND      FAIR      82  50  32 W14G21    29.94S HX  81           
JUNEAU         FAIR      80  56  44 NW10G17   29.97S HX  80           
$$


SKY/WX - Weather  TMP - Temperature  DP - Dewpoint  RH - Relative Humidity
WIND - Wind Direction/Speed PRES - Barometric Pressure